Location: Владивосток
(43.1151°N, 131.8856°E)
Time: 23:46:58
(UTC+10:00)

EO-88 - Pass Details

Date: 03 July 2022
Orbit: 453 x 461 km, 97.3° (Epoch: 17 August)

Event Time Altitude Azimuth Distance (km) Brightness Sun altitude
Exits shadow 21:29:00 - 108° (ESE) 1,953 ? -5.8°
Reaches altitude 10° 21:30:20 10° 92° (E) 1,627 ? -6.0°
Maximum altitude 21:31:54 13° 65° (ENE) 1,472 ? -6.2°
Drops below altitude 10° 21:33:28 10° 38° (NE) 1,632 ? -6.4°
Sets 21:36:29 0° 9° (N) 2,513 ? -6.8°
